Location: Rounton
(54.4000°N, 1.3500°W)
Time: 17:44:50
(UTC+00:00)

Transit 2A Rocket - Pass Details

Date: 04 December 2021
Orbit: 584 x 917 km, 66.7° (Epoch: 23 January)

Event Time Altitude Azimuth Distance (km) Brightness Sun altitude
Rises 16:41:17 0° 316° (NW) 3,567 8.7 -7.9°
Reaches altitude 10° 16:44:01 10° 309° (NW) 2,614 8.1 -8.2°
Maximum altitude 16:49:33 37° 244° (WSW) 1,353 7.1 -8.9°
Drops below altitude 10° 16:54:51 10° 179° (S) 2,488 8.0 -9.6°
Sets 16:57:23 0° 171° (S) 3,375 8.6 -10.0°
